Location: Arcadia
(34.1397°N, 118.0353°W)
Time: 00:09:21
(UTC+00:00)

Okean 1-7 Rocket - Pass Details

Date: 08 September 2024
Orbit: 611 x 646 km, 82.5° (Epoch: 13 October)

Event Time Altitude Azimuth Distance (km) Brightness Sun altitude
Rises 12:23:53 0° 349° (NNW) 2,935 7.1 -14.4°
Reaches altitude 10° 12:26:09 10° 345° (NNW) 2,017 6.2 -13.9°
Maximum altitude 12:30:33 60° 267° (W) 721 3.6 -13.1°
Drops below altitude 10° 12:34:52 10° 187° (S) 1,982 5.9 -12.2°
Sets 12:37:05 0° 184° (S) 2,878 6.8 -11.8°
